contact:dominique.lefevre@mio.osupytheas.fr, maurice.libes@osupytheas.fr, didier.mallarino@osupytheas.fr
Project:EMSO http://www.emso-fr.org/EMSO-France
Depth: 2436.0 m
Title:EMSO Ligure Ouest : Data MII capteur MICROCAT
DateTime_Computer,Latitude,Longitude,Temperature,Conductivity,Pressure,DateTime_Instrument
DateTime_Computer,Latitude,Longitude,degC,S m-1,dbar,DateTime_Instrument
2020-01-22T00:00:58Z,42.805,6.029,13.2966,4.59961,2469.984,2020-1-22T02:01:31Z
2020-01-22T00:04:01Z,42.805,6.029,13.2967,4.59961,2469.984,2020-1-22T02:04:34Z
2020-01-22T00:07:04Z,42.805,6.029,13.2961,4.59961,2469.947,2020-1-22T02:07:37Z
2020-01-22T00:10:07Z,42.805,6.029,13.2964,4.59961,2469.947,2020-1-22T02:10:40Z
2020-01-22T00:13:11Z,42.805,6.029,13.2963,4.59961,2469.947,2020-1-22T02:13:44Z
2020-01-22T00:16:14Z,42.805,6.029,13.2965,4.59961,2469.97,2020-1-22T02:16:47Z
2020-01-22T00:19:17Z,42.805,6.029,13.2964,4.59961,2469.937,2020-1-22T02:19:50Z
2020-01-22T00:22:20Z,42.805,6.029,13.2964,4.59961,2469.947,2020-1-22T02:22:53Z
2020-01-22T00:25:24Z,42.805,6.029,13.2966,4.59962,2469.96,2020-1-22T02:25:57Z
2020-01-22T00:28:27Z,42.805,6.029,13.2967,4.59961,2469.97,2020-1-22T02:29:00Z
2020-01-22T00:31:30Z,42.805,6.029,13.2966,4.59962,2469.96,2020-1-22T02:32:03Z
2020-01-22T00:34:33Z,42.805,6.029,13.2962,4.59961,2469.96,2020-1-22T02:35:06Z
2020-01-22T00:37:37Z,42.805,6.029,13.2965,4.59962,2469.97,2020-1-22T02:38:10Z
2020-01-22T00:40:40Z,42.805,6.029,13.2964,4.59962,2469.947,2020-1-22T02:41:13Z
2020-01-22T00:43:43Z,42.805,6.029,13.2967,4.59961,2469.984,2020-1-22T02:44:16Z
2020-01-22T00:46:46Z,42.805,6.029,13.2962,4.59961,2469.984,2020-1-22T02:47:19Z
2020-01-22T00:49:50Z,42.805,6.029,13.2965,4.59961,2469.96,2020-1-22T02:50:23Z
2020-01-22T00:52:53Z,42.805,6.029,13.2962,4.59961,2469.933,2020-1-22T02:53:26Z
2020-01-22T00:55:56Z,42.805,6.029,13.2967,4.59961,2469.947,2020-1-22T02:56:29Z
2020-01-22T00:58:59Z,42.805,6.029,13.2965,4.59961,2469.97,2020-1-22T02:59:32Z
2020-01-22T01:02:03Z,42.805,6.029,13.2965,4.59962,2469.96,2020-1-22T03:02:36Z
2020-01-22T01:05:06Z,42.805,6.029,13.2962,4.59962,2469.97,2020-1-22T03:05:39Z
2020-01-22T01:08:09Z,42.805,6.029,13.2967,4.59961,2469.923,2020-1-22T03:08:42Z
2020-01-22T01:11:12Z,42.805,6.029,13.2963,4.59961,2469.947,2020-1-22T03:11:45Z
2020-01-22T01:14:16Z,42.805,6.029,13.2964,4.59961,2469.984,2020-1-22T03:14:49Z
2020-01-22T01:17:19Z,42.805,6.029,13.2961,4.59962,2469.993,2020-1-22T03:17:52Z
2020-01-22T01:20:22Z,42.805,6.029,13.2962,4.59961,2469.96,2020-1-22T03:20:55Z
2020-01-22T01:23:25Z,42.805,6.029,13.2963,4.59961,2469.984,2020-1-22T03:23:58Z
2020-01-22T01:26:29Z,42.805,6.029,13.2964,4.59962,2469.947,2020-1-22T03:27:02Z
2020-01-22T01:29:32Z,42.805,6.029,13.2962,4.59961,2470.007,2020-1-22T03:30:05Z
2020-01-22T01:32:35Z,42.805,6.029,13.2965,4.59961,2469.947,2020-1-22T03:33:08Z
2020-01-22T01:35:39Z,42.805,6.029,13.2962,4.59961,2469.97,2020-1-22T03:36:12Z
2020-01-22T01:38:42Z,42.805,6.029,13.2961,4.59963,2469.909,2020-1-22T03:39:15Z
2020-01-22T01:41:45Z,42.805,6.029,13.2966,4.59961,2469.993,2020-1-22T03:42:18Z
2020-01-22T01:44:48Z,42.805,6.029,13.2964,4.59961,2470.007,2020-1-22T03:45:21Z
2020-01-22T01:47:52Z,42.805,6.029,13.2966,4.59961,2469.96,2020-1-22T03:48:25Z
2020-01-22T01:50:55Z,42.805,6.029,13.2966,4.59961,2469.993,2020-1-22T03:51:28Z
2020-01-22T01:53:58Z,42.805,6.029,13.2968,4.59962,2469.993,2020-1-22T03:54:31Z
2020-01-22T01:57:01Z,42.805,6.029,13.2964,4.59961,2469.97,2020-1-22T03:57:34Z
2020-01-22T02:00:05Z,42.805,6.029,13.2964,4.59961,2470.007,2020-1-22T04:00:38Z
2020-01-22T02:03:08Z,42.805,6.029,13.2966,4.59961,2470.017,2020-1-22T04:03:41Z
2020-01-22T02:06:11Z,42.805,6.029,13.2962,4.59961,2470.017,2020-1-22T04:06:44Z
2020-01-22T02:09:14Z,42.805,6.029,13.2965,4.59961,2469.993,2020-1-22T04:09:47Z
2020-01-22T02:12:17Z,42.805,6.029,13.2964,4.59961,2470.017,2020-1-22T04:12:50Z
2020-01-22T02:15:21Z,42.805,6.029,13.2961,4.59962,2470.03,2020-1-22T04:15:54Z
2020-01-22T02:18:24Z,42.805,6.029,13.2965,4.59961,2469.993,2020-1-22T04:18:57Z
2020-01-22T02:21:27Z,42.805,6.029,13.2963,4.59961,2470.007,2020-1-22T04:22:00Z
2020-01-22T02:24:30Z,42.805,6.029,13.2962,4.59963,2470.017,2020-1-22T04:25:03Z
2020-01-22T02:27:34Z,42.805,6.029,13.2963,4.59962,2470.053,2020-1-22T04:28:07Z
2020-01-22T02:30:37Z,42.805,6.029,13.2964,4.59963,2470.017,2020-1-22T04:31:10Z
2020-01-22T02:33:40Z,42.805,6.029,13.2961,4.59961,2470.026,2020-1-22T04:34:13Z
2020-01-22T02:36:43Z,42.805,6.029,13.2966,4.59962,2469.993,2020-1-22T04:37:16Z
2020-01-22T02:39:47Z,42.805,6.029,13.2964,4.59962,2470.007,2020-1-22T04:40:20Z
2020-01-22T02:42:50Z,42.805,6.029,13.2966,4.59962,2470.04,2020-1-22T04:43:23Z
2020-01-22T02:45:53Z,42.805,6.029,13.2965,4.59962,2470.04,2020-1-22T04:46:26Z
2020-01-22T02:48:56Z,42.805,6.029,13.2967,4.59963,2470.04,2020-1-22T04:49:29Z
2020-01-22T02:52:00Z,42.805,6.029,13.2964,4.59963,2470.026,2020-1-22T04:52:33Z
2020-01-22T02:55:03Z,42.805,6.029,13.2966,4.59962,2470.063,2020-1-22T04:55:36Z
2020-01-22T02:58:06Z,42.805,6.029,13.2965,4.59962,2470.04,2020-1-22T04:58:39Z
2020-01-22T03:01:09Z,42.805,6.029,13.2965,4.59962,2470.1,2020-1-22T05:01:42Z
2020-01-22T03:04:12Z,42.805,6.029,13.2964,4.59962,2470.053,2020-1-22T05:04:45Z
2020-01-22T03:07:16Z,42.805,6.029,13.2965,4.59962,2470.063,2020-1-22T05:07:49Z
2020-01-22T03:10:19Z,42.805,6.029,13.2962,4.59962,2470.077,2020-1-22T05:10:52Z
2020-01-22T03:13:22Z,42.805,6.029,13.2967,4.59961,2470.049,2020-1-22T05:13:55Z
2020-01-22T03:16:26Z,42.805,6.029,13.2961,4.59963,2470.1,2020-1-22T05:16:59Z
2020-01-22T03:19:29Z,42.805,6.029,13.2961,4.59961,2470.053,2020-1-22T05:20:02Z
2020-01-22T03:22:32Z,42.805,6.029,13.2963,4.59963,2470.063,2020-1-22T05:23:05Z
2020-01-22T03:25:35Z,42.805,6.029,13.2962,4.59963,2470.11,2020-1-22T05:26:08Z
2020-01-22T03:28:38Z,42.805,6.029,13.2964,4.59961,2470.063,2020-1-22T05:29:11Z
2020-01-22T03:31:42Z,42.805,6.029,13.2967,4.59964,2470.087,2020-1-22T05:32:15Z
2020-01-22T03:34:45Z,42.805,6.029,13.2969,4.59962,2470.1,2020-1-22T05:35:18Z
2020-01-22T03:37:48Z,42.805,6.029,13.2965,4.59962,2470.087,2020-1-22T05:38:21Z
2020-01-22T03:40:51Z,42.805,6.029,13.2965,4.59961,2470.11,2020-1-22T05:41:24Z
2020-01-22T03:43:55Z,42.805,6.029,13.2964,4.59962,2470.04,2020-1-22T05:44:28Z
2020-01-22T03:46:58Z,42.805,6.029,13.2965,4.59962,2470.1,2020-1-22T05:47:31Z
2020-01-22T03:50:01Z,42.805,6.029,13.2962,4.59962,2470.11,2020-1-22T05:50:34Z
2020-01-22T03:53:04Z,42.805,6.029,13.2967,4.59963,2470.087,2020-1-22T05:53:37Z
2020-01-22T03:56:08Z,42.805,6.029,13.2967,4.59963,2470.147,2020-1-22T05:56:41Z
2020-01-22T03:59:11Z,42.805,6.029,13.2966,4.59963,2470.11,2020-1-22T05:59:44Z
2020-01-22T04:02:14Z,42.805,6.029,13.2968,4.59962,2470.1,2020-1-22T06:02:47Z
2020-01-22T04:05:17Z,42.805,6.029,13.2967,4.59962,2470.11,2020-1-22T06:05:50Z
2020-01-22T04:08:20Z,42.805,6.029,13.2964,4.59962,2470.1,2020-1-22T06:08:53Z
2020-01-22T04:11:24Z,42.805,6.029,13.2960,4.59963,2470.11,2020-1-22T06:11:57Z
2020-01-22T04:14:27Z,42.805,6.029,13.2962,4.59964,2470.133,2020-1-22T06:15:00Z
2020-01-22T04:17:30Z,42.805,6.029,13.2961,4.59964,2470.11,2020-1-22T06:18:03Z
2020-01-22T04:20:33Z,42.805,6.029,13.2961,4.59962,2470.1,2020-1-22T06:21:06Z
2020-01-22T04:23:37Z,42.805,6.029,13.2964,4.59962,2470.133,2020-1-22T06:24:10Z
2020-01-22T04:26:40Z,42.805,6.029,13.2964,4.59962,2470.124,2020-1-22T06:27:13Z
2020-01-22T04:29:43Z,42.805,6.029,13.2967,4.59963,2470.119,2020-1-22T06:30:16Z
2020-01-22T04:32:46Z,42.805,6.029,13.2963,4.59962,2470.147,2020-1-22T06:33:19Z
2020-01-22T04:35:49Z,42.805,6.029,13.2961,4.59963,2470.1,2020-1-22T06:36:22Z
2020-01-22T04:38:53Z,42.805,6.029,13.2964,4.59961,2470.124,2020-1-22T06:39:26Z
2020-01-22T04:41:56Z,42.805,6.029,13.2966,4.59963,2470.133,2020-1-22T06:42:29Z
2020-01-22T04:44:59Z,42.805,6.029,13.2960,4.59963,2470.171,2020-1-22T06:45:32Z
2020-01-22T04:48:02Z,42.805,6.029,13.2966,4.59962,2470.133,2020-1-22T06:48:35Z
2020-01-22T04:51:06Z,42.805,6.029,13.2968,4.59962,2470.133,2020-1-22T06:51:39Z
2020-01-22T04:54:09Z,42.805,6.029,13.2968,4.59963,2470.147,2020-1-22T06:54:42Z
2020-01-22T04:57:12Z,42.805,6.029,13.2966,4.59962,2470.147,2020-1-22T06:57:45Z
2020-01-22T05:00:15Z,42.805,6.029,13.2963,4.59962,2470.147,2020-1-22T07:00:48Z
2020-01-22T05:03:19Z,42.805,6.029,13.2964,4.59964,2470.11,2020-1-22T07:03:52Z
2020-01-22T05:06:22Z,42.805,6.029,13.2964,4.59963,2470.087,2020-1-22T07:06:55Z
2020-01-22T05:09:25Z,42.805,6.029,13.2961,4.59962,2470.096,2020-1-22T07:09:58Z
2020-01-22T05:12:28Z,42.805,6.029,13.2964,4.59962,2470.124,2020-1-22T07:13:01Z
2020-01-22T05:15:32Z,42.805,6.029,13.2967,4.59963,2470.133,2020-1-22T07:16:05Z
2020-01-22T05:18:35Z,42.805,6.029,13.2961,4.59963,2470.147,2020-1-22T07:19:08Z
2020-01-22T05:21:38Z,42.805,6.029,13.2969,4.59963,2470.11,2020-1-22T07:22:11Z
2020-01-22T05:24:41Z,42.805,6.029,13.2966,4.59963,2470.147,2020-1-22T07:25:14Z
2020-01-22T05:27:44Z,42.805,6.029,13.2964,4.59963,2470.133,2020-1-22T07:28:17Z
2020-01-22T05:30:48Z,42.805,6.029,13.2960,4.59962,2470.156,2020-1-22T07:31:21Z
2020-01-22T05:33:51Z,42.805,6.029,13.2964,4.59962,2470.156,2020-1-22T07:34:24Z
2020-01-22T05:36:54Z,42.805,6.029,13.2967,4.59964,2470.11,2020-1-22T07:37:27Z
2020-01-22T05:39:57Z,42.805,6.029,13.2963,4.59963,2470.133,2020-1-22T07:40:30Z
2020-01-22T05:43:01Z,42.805,6.029,13.2964,4.59963,2470.156,2020-1-22T07:43:34Z
2020-01-22T05:46:04Z,42.805,6.029,13.2964,4.59963,2470.133,2020-1-22T07:46:37Z
2020-01-22T05:49:07Z,42.805,6.029,13.2964,4.59962,2470.147,2020-1-22T07:49:40Z
2020-01-22T05:52:10Z,42.805,6.029,13.2965,4.59962,2470.133,2020-1-22T07:52:43Z
2020-01-22T05:55:14Z,42.805,6.029,13.2965,4.59962,2470.133,2020-1-22T07:55:47Z
2020-01-22T05:58:17Z,42.805,6.029,13.2963,4.59961,2470.11,2020-1-22T07:58:50Z
2020-01-22T06:01:20Z,42.805,6.029,13.2964,4.59962,2470.147,2020-1-22T08:01:53Z
2020-01-22T06:04:23Z,42.805,6.029,13.2962,4.59961,2470.11,2020-1-22T08:04:56Z
2020-01-22T06:07:26Z,42.805,6.029,13.2963,4.59962,2470.133,2020-1-22T08:07:59Z
2020-01-22T06:10:30Z,42.805,6.029,13.2964,4.59963,2470.133,2020-1-22T08:11:03Z
2020-01-22T06:13:33Z,42.805,6.029,13.2964,4.59961,2470.133,2020-1-22T08:14:06Z
2020-01-22T06:16:36Z,42.805,6.029,13.2961,4.59962,2470.11,2020-1-22T08:17:09Z
2020-01-22T06:19:39Z,42.805,6.029,13.2962,4.59962,2470.133,2020-1-22T08:20:12Z
2020-01-22T06:22:43Z,42.805,6.029,13.2961,4.59962,2470.156,2020-1-22T08:23:16Z
2020-01-22T06:25:46Z,42.805,6.029,13.2964,4.59962,2470.133,2020-1-22T08:26:19Z
2020-01-22T06:28:49Z,42.805,6.029,13.2960,4.59963,2470.133,2020-1-22T08:29:22Z
2020-01-22T06:31:52Z,42.805,6.029,13.2964,4.59962,2470.11,2020-1-22T08:32:26Z
2020-01-22T06:34:56Z,42.805,6.029,13.2964,4.59963,2470.147,2020-1-22T08:35:29Z
2020-01-22T06:37:59Z,42.805,6.029,13.2963,4.59962,2470.11,2020-1-22T08:38:32Z
2020-01-22T06:41:02Z,42.805,6.029,13.2966,4.59963,2470.133,2020-1-22T08:41:35Z
2020-01-22T06:44:05Z,42.805,6.029,13.2965,4.59962,2470.133,2020-1-22T08:44:39Z
2020-01-22T06:47:09Z,42.805,6.029,13.2966,4.59963,2470.156,2020-1-22T08:47:42Z
2020-01-22T06:50:12Z,42.805,6.029,13.2966,4.59962,2470.147,2020-1-22T08:50:45Z
2020-01-22T06:53:15Z,42.805,6.029,13.2963,4.59962,2470.147,2020-1-22T08:53:48Z
2020-01-22T06:56:18Z,42.805,6.029,13.2963,4.59962,2470.133,2020-1-22T08:56:51Z
2020-01-22T06:59:22Z,42.805,6.029,13.2961,4.59962,2470.147,2020-1-22T08:59:55Z
2020-01-22T07:02:25Z,42.805,6.029,13.2966,4.59963,2470.147,2020-1-22T09:02:58Z
2020-01-22T07:05:28Z,42.805,6.029,13.2961,4.59962,2470.133,2020-1-22T09:06:01Z
2020-01-22T07:08:31Z,42.805,6.029,13.2963,4.59962,2470.171,2020-1-22T09:09:04Z
2020-01-22T07:11:34Z,42.805,6.029,13.2964,4.59963,2470.133,2020-1-22T09:12:07Z
2020-01-22T07:14:38Z,42.805,6.029,13.2965,4.59963,2470.133,2020-1-22T09:15:11Z
2020-01-22T07:17:41Z,42.805,6.029,13.2965,4.59962,2470.133,2020-1-22T09:18:14Z
2020-01-22T07:20:44Z,42.805,6.029,13.2964,4.59962,2470.147,2020-1-22T09:21:17Z
2020-01-22T07:23:48Z,42.805,6.029,13.2966,4.59962,2470.147,2020-1-22T09:24:21Z
2020-01-22T07:26:51Z,42.805,6.029,13.2965,4.59962,2470.133,2020-1-22T09:27:24Z
2020-01-22T07:29:54Z,42.805,6.029,13.2961,4.59963,2470.147,2020-1-22T09:30:27Z
2020-01-22T07:32:57Z,42.805,6.029,13.2965,4.59963,2470.133,2020-1-22T09:33:30Z
2020-01-22T07:36:00Z,42.805,6.029,13.2963,4.59962,2470.133,2020-1-22T09:36:33Z
2020-01-22T07:39:04Z,42.805,6.029,13.2963,4.59961,2470.133,2020-1-22T09:39:37Z
2020-01-22T07:42:07Z,42.805,6.029,13.2966,4.59963,2470.147,2020-1-22T09:42:40Z
2020-01-22T07:45:10Z,42.805,6.029,13.2962,4.59962,2470.124,2020-1-22T09:45:43Z
2020-01-22T07:48:13Z,42.805,6.029,13.2964,4.59962,2470.147,2020-1-22T09:48:46Z
2020-01-22T07:51:17Z,42.805,6.029,13.2962,4.59962,2470.133,2020-1-22T09:51:50Z
2020-01-22T07:54:20Z,42.805,6.029,13.2968,4.59962,2470.11,2020-1-22T09:54:53Z
2020-01-22T07:57:23Z,42.805,6.029,13.2961,4.59962,2470.147,2020-1-22T09:57:56Z
2020-01-22T08:00:26Z,42.805,6.029,13.2964,4.59963,2470.11,2020-1-22T10:01:00Z
2020-01-22T08:03:30Z,42.805,6.029,13.2967,4.59962,2470.147,2020-1-22T10:04:03Z
2020-01-22T08:06:33Z,42.805,6.029,13.2968,4.59962,2470.087,2020-1-22T10:07:06Z
2020-01-22T08:09:36Z,42.805,6.029,13.2964,4.59963,2470.147,2020-1-22T10:10:09Z
2020-01-22T08:12:39Z,42.805,6.029,13.2964,4.59962,2470.11,2020-1-22T10:13:12Z
2020-01-22T08:15:43Z,42.805,6.029,13.2961,4.59962,2470.147,2020-1-22T10:16:16Z
2020-01-22T08:18:46Z,42.805,6.029,13.2964,4.59962,2470.124,2020-1-22T10:19:19Z
2020-01-22T08:21:49Z,42.805,6.029,13.2967,4.59962,2470.124,2020-1-22T10:22:22Z
2020-01-22T08:24:52Z,42.805,6.029,13.2964,4.59962,2470.11,2020-1-22T10:25:25Z
2020-01-22T08:27:56Z,42.805,6.029,13.2961,4.59962,2470.11,2020-1-22T10:28:29Z
2020-01-22T08:30:59Z,42.805,6.029,13.2964,4.59962,2470.11,2020-1-22T10:31:32Z
2020-01-22T08:34:02Z,42.805,6.029,13.2964,4.59961,2470.124,2020-1-22T10:34:35Z
2020-01-22T08:37:05Z,42.805,6.029,13.2966,4.59962,2470.1,2020-1-22T10:37:38Z
2020-01-22T08:40:09Z,42.805,6.029,13.2964,4.59962,2470.11,2020-1-22T10:40:42Z
2020-01-22T08:43:12Z,42.805,6.029,13.2961,4.59964,2470.087,2020-1-22T10:43:45Z
2020-01-22T08:46:15Z,42.805,6.029,13.2964,4.59962,2470.1,2020-1-22T10:46:48Z
2020-01-22T08:49:18Z,42.805,6.029,13.2967,4.59962,2470.11,2020-1-22T10:49:51Z
2020-01-22T08:52:22Z,42.805,6.029,13.2961,4.59961,2470.077,2020-1-22T10:52:55Z
2020-01-22T08:55:25Z,42.805,6.029,13.2964,4.59963,2470.124,2020-1-22T10:55:58Z
2020-01-22T08:58:28Z,42.805,6.029,13.2964,4.59961,2470.1,2020-1-22T10:59:01Z
2020-01-22T09:01:32Z,42.805,6.029,13.2966,4.59962,2470.063,2020-1-22T11:02:05Z
2020-01-22T09:04:35Z,42.805,6.029,13.2962,4.59962,2470.087,2020-1-22T11:05:08Z
2020-01-22T09:07:38Z,42.805,6.029,13.2967,4.59962,2470.063,2020-1-22T11:08:11Z
2020-01-22T09:10:41Z,42.805,6.029,13.2968,4.59962,2470.04,2020-1-22T11:11:14Z
2020-01-22T09:13:44Z,42.805,6.029,13.2964,4.59962,2470.077,2020-1-22T11:14:17Z
2020-01-22T09:16:48Z,42.805,6.029,13.2965,4.59962,2470.063,2020-1-22T11:17:21Z
2020-01-22T09:19:51Z,42.805,6.029,13.2967,4.59962,2470.11,2020-1-22T11:20:24Z
2020-01-22T09:22:54Z,42.805,6.029,13.2967,4.59962,2470.077,2020-1-22T11:23:27Z
2020-01-22T09:25:57Z,42.805,6.029,13.2964,4.59961,2470.077,2020-1-22T11:26:30Z
2020-01-22T09:29:01Z,42.805,6.029,13.2964,4.59962,2470.063,2020-1-22T11:29:34Z
2020-01-22T09:32:04Z,42.805,6.029,13.2964,4.59964,2470.087,2020-1-22T11:32:37Z
2020-01-22T09:35:07Z,42.805,6.029,13.2961,4.59962,2470.04,2020-1-22T11:35:40Z
2020-01-22T09:38:10Z,42.805,6.029,13.2961,4.59962,2470.1,2020-1-22T11:38:43Z
2020-01-22T09:41:14Z,42.805,6.029,13.2962,4.59962,2470.063,2020-1-22T11:41:47Z
2020-01-22T09:44:17Z,42.805,6.029,13.2967,4.59963,2470.077,2020-1-22T11:44:50Z
2020-01-22T09:47:20Z,42.805,6.029,13.2965,4.59963,2470.063,2020-1-22T11:47:53Z
2020-01-22T09:50:23Z,42.805,6.029,13.2965,4.59962,2470.063,2020-1-22T11:50:56Z
2020-01-22T09:53:26Z,42.805,6.029,13.2962,4.59962,2470.087,2020-1-22T11:53:59Z
2020-01-22T09:56:30Z,42.805,6.029,13.2964,4.59962,2470.063,2020-1-22T11:57:03Z
2020-01-22T09:59:33Z,42.805,6.029,13.2962,4.59962,2470.077,2020-1-22T12:00:06Z
2020-01-22T10:02:36Z,42.805,6.029,13.2967,4.59962,2470.04,2020-1-22T12:03:09Z
2020-01-22T10:05:40Z,42.805,6.029,13.2967,4.59962,2470.04,2020-1-22T12:06:13Z
2020-01-22T10:08:43Z,42.805,6.029,13.2962,4.59962,2470.053,2020-1-22T12:09:16Z
2020-01-22T10:11:46Z,42.805,6.029,13.2962,4.59964,2470.063,2020-1-22T12:12:19Z
2020-01-22T10:14:49Z,42.805,6.029,13.2963,4.59964,2470.063,2020-1-22T12:15:22Z
2020-01-22T10:17:52Z,42.805,6.029,13.2967,4.59962,2470.087,2020-1-22T12:18:25Z
2020-01-22T10:20:56Z,42.805,6.029,13.2963,4.59962,2469.993,2020-1-22T12:21:29Z
2020-01-22T10:23:59Z,42.805,6.029,13.2967,4.59962,2470.063,2020-1-22T12:24:32Z
2020-01-22T10:27:02Z,42.805,6.029,13.2961,4.59963,2470.04,2020-1-22T12:27:35Z
2020-01-22T10:30:06Z,42.805,6.029,13.2961,4.59963,2470.04,2020-1-22T12:30:39Z
2020-01-22T10:33:09Z,42.805,6.029,13.2961,4.59962,2470.017,2020-1-22T12:33:42Z
2020-01-22T10:36:12Z,42.805,6.029,13.2962,4.59962,2470.017,2020-1-22T12:36:45Z
2020-01-22T10:39:15Z,42.805,6.029,13.2966,4.59963,2470.03,2020-1-22T12:39:48Z
2020-01-22T10:42:19Z,42.805,6.029,13.2960,4.59962,2470.017,2020-1-22T12:42:52Z
2020-01-22T10:45:22Z,42.805,6.029,13.2971,4.59962,2470.017,2020-1-22T12:45:55Z
2020-01-22T10:48:25Z,42.805,6.029,13.2963,4.59962,2470.03,2020-1-22T12:48:58Z
2020-01-22T10:51:28Z,42.805,6.029,13.2967,4.59962,2470.053,2020-1-22T12:52:01Z
2020-01-22T10:54:31Z,42.805,6.029,13.2965,4.59962,2469.993,2020-1-22T12:55:04Z
2020-01-22T10:57:35Z,42.805,6.029,13.2968,4.59962,2470.03,2020-1-22T12:58:08Z
2020-01-22T11:00:38Z,42.805,6.029,13.2965,4.59962,2470.017,2020-1-22T13:01:11Z
2020-01-22T11:03:41Z,42.805,6.029,13.2967,4.59963,2470.063,2020-1-22T13:04:14Z
2020-01-22T11:06:44Z,42.805,6.029,13.2966,4.59961,2470.007,2020-1-22T13:07:17Z
2020-01-22T11:09:48Z,42.805,6.029,13.2964,4.59962,2469.993,2020-1-22T13:10:21Z
2020-01-22T11:12:51Z,42.805,6.029,13.2966,4.59962,2470.017,2020-1-22T13:13:24Z
2020-01-22T11:15:54Z,42.805,6.029,13.2960,4.59962,2470.03,2020-1-22T13:16:27Z
2020-01-22T11:18:57Z,42.805,6.029,13.2965,4.59966,2470.007,2020-1-22T13:19:30Z
2020-01-22T11:22:01Z,42.805,6.029,13.2965,4.59961,2470.017,2020-1-22T13:22:34Z
2020-01-22T11:25:04Z,42.805,6.029,13.2964,4.59963,2470.007,2020-1-22T13:25:37Z
2020-01-22T11:28:07Z,42.805,6.029,13.2962,4.59962,2470.017,2020-1-22T13:28:40Z
2020-01-22T11:31:10Z,42.805,6.029,13.2964,4.59962,2470.007,2020-1-22T13:31:43Z
2020-01-22T11:34:14Z,42.805,6.029,13.2961,4.59963,2469.993,2020-1-22T13:34:47Z
2020-01-22T11:37:17Z,42.805,6.029,13.2963,4.59962,2470.017,2020-1-22T13:37:50Z
2020-01-22T11:40:20Z,42.805,6.029,13.2970,4.59962,2470.017,2020-1-22T13:40:53Z
2020-01-22T11:43:23Z,42.805,6.029,13.2966,4.59961,2470.03,2020-1-22T13:43:56Z
2020-01-22T11:46:27Z,42.805,6.029,13.2965,4.59962,2469.984,2020-1-22T13:47:00Z
2020-01-22T11:49:30Z,42.805,6.029,13.2968,4.59962,2469.97,2020-1-22T13:50:03Z
2020-01-22T11:52:33Z,42.805,6.029,13.2964,4.59962,2469.993,2020-1-22T13:53:06Z
2020-01-22T11:55:36Z,42.805,6.029,13.2968,4.59961,2469.97,2020-1-22T13:56:09Z
2020-01-22T11:58:39Z,42.805,6.029,13.2964,4.59961,2469.993,2020-1-22T13:59:12Z
2020-01-22T12:01:43Z,42.805,6.029,13.2964,4.59961,2469.97,2020-1-22T14:02:16Z
2020-01-22T12:04:46Z,42.805,6.029,13.2963,4.59964,2470.03,2020-1-22T14:05:19Z
2020-01-22T12:07:49Z,42.805,6.029,13.2966,4.59961,2470.017,2020-1-22T14:08:22Z
2020-01-22T12:10:53Z,42.805,6.029,13.2961,4.59962,2470.007,2020-1-22T14:11:26Z
2020-01-22T12:13:56Z,42.805,6.029,13.2965,4.59961,2469.993,2020-1-22T14:14:29Z
2020-01-22T12:16:59Z,42.805,6.029,13.2963,4.59962,2469.993,2020-1-22T14:17:32Z
2020-01-22T12:20:02Z,42.805,6.029,13.2967,4.59961,2469.97,2020-1-22T14:20:35Z
2020-01-22T12:23:06Z,42.805,6.029,13.2964,4.59961,2469.97,2020-1-22T14:23:39Z
2020-01-22T12:26:09Z,42.805,6.029,13.2964,4.59962,2470.007,2020-1-22T14:26:42Z
2020-01-22T12:29:12Z,42.805,6.029,13.2964,4.59961,2469.96,2020-1-22T14:29:45Z
2020-01-22T12:32:15Z,42.805,6.029,13.2968,4.59962,2469.984,2020-1-22T14:32:48Z
2020-01-22T12:35:19Z,42.805,6.029,13.2963,4.59961,2469.993,2020-1-22T14:35:52Z
2020-01-22T12:38:22Z,42.805,6.029,13.2960,4.59961,2469.947,2020-1-22T14:38:55Z
2020-01-22T12:41:25Z,42.805,6.029,13.2967,4.59962,2469.97,2020-1-22T14:41:58Z
2020-01-22T12:44:28Z,42.805,6.029,13.2964,4.59962,2469.984,2020-1-22T14:45:01Z
2020-01-22T12:47:32Z,42.805,6.029,13.2959,4.59962,2469.993,2020-1-22T14:48:05Z
2020-01-22T12:50:35Z,42.805,6.029,13.2964,4.59962,2469.984,2020-1-22T14:51:08Z
2020-01-22T12:53:38Z,42.805,6.029,13.2964,4.59962,2469.97,2020-1-22T14:54:11Z
2020-01-22T12:56:41Z,42.805,6.029,13.2964,4.59962,2469.993,2020-1-22T14:57:15Z
2020-01-22T12:59:45Z,42.805,6.029,13.2963,4.59963,2469.947,2020-1-22T15:00:18Z
2020-01-22T13:02:48Z,42.805,6.029,13.2964,4.59962,2470.007,2020-1-22T15:03:21Z
2020-01-22T13:05:51Z,42.805,6.029,13.2967,4.59961,2469.96,2020-1-22T15:06:24Z
2020-01-22T13:08:54Z,42.805,6.029,13.2967,4.59962,2469.984,2020-1-22T15:09:27Z
2020-01-22T13:11:58Z,42.805,6.029,13.2966,4.59961,2469.97,2020-1-22T15:12:31Z
2020-01-22T13:15:01Z,42.805,6.029,13.2964,4.59961,2469.947,2020-1-22T15:15:34Z
2020-01-22T13:18:04Z,42.805,6.029,13.2965,4.59961,2469.97,2020-1-22T15:18:37Z
2020-01-22T13:21:08Z,42.805,6.029,13.2967,4.59962,2469.984,2020-1-22T15:21:41Z
2020-01-22T13:24:11Z,42.805,6.029,13.2964,4.59962,2469.984,2020-1-22T15:24:44Z
2020-01-22T13:27:14Z,42.805,6.029,13.2964,4.59961,2470.007,2020-1-22T15:27:47Z
2020-01-22T13:30:17Z,42.805,6.029,13.2964,4.59962,2469.97,2020-1-22T15:30:50Z
2020-01-22T13:33:21Z,42.805,6.029,13.2965,4.59963,2469.984,2020-1-22T15:33:54Z
2020-01-22T13:36:24Z,42.805,6.029,13.2964,4.59961,2469.947,2020-1-22T15:36:57Z
2020-01-22T13:39:27Z,42.805,6.029,13.2964,4.59964,2469.984,2020-1-22T15:40:00Z
2020-01-22T13:42:30Z,42.805,6.029,13.2964,4.59962,2469.947,2020-1-22T15:43:03Z
2020-01-22T13:45:34Z,42.805,6.029,13.2967,4.59961,2469.96,2020-1-22T15:46:07Z
2020-01-22T13:48:37Z,42.805,6.029,13.2965,4.59961,2469.97,2020-1-22T15:49:10Z
2020-01-22T13:51:40Z,42.805,6.029,13.2965,4.59961,2469.96,2020-1-22T15:52:13Z
2020-01-22T13:54:43Z,42.805,6.029,13.2963,4.59961,2469.96,2020-1-22T15:55:16Z
2020-01-22T13:57:47Z,42.805,6.029,13.2964,4.59961,2470.007,2020-1-22T15:58:20Z
2020-01-22T14:00:50Z,42.805,6.029,13.2964,4.59962,2469.947,2020-1-22T16:01:23Z
2020-01-22T14:03:53Z,42.805,6.029,13.2962,4.59962,2469.97,2020-1-22T16:04:26Z
2020-01-22T14:06:56Z,42.805,6.029,13.2965,4.59961,2469.993,2020-1-22T16:07:29Z
2020-01-22T14:10:00Z,42.805,6.029,13.2962,4.59964,2469.984,2020-1-22T16:10:33Z
2020-01-22T14:13:03Z,42.805,6.029,13.2964,4.59961,2469.97,2020-1-22T16:13:36Z
2020-01-22T14:16:06Z,42.805,6.029,13.2964,4.59963,2469.947,2020-1-22T16:16:39Z
2020-01-22T14:19:09Z,42.805,6.029,13.2964,4.59962,2469.984,2020-1-22T16:19:43Z
2020-01-22T14:22:13Z,42.805,6.029,13.2966,4.59961,2469.993,2020-1-22T16:22:46Z
2020-01-22T14:25:16Z,42.805,6.029,13.2963,4.59962,2470.007,2020-1-22T16:25:49Z
2020-01-22T14:28:19Z,42.805,6.029,13.2964,4.59961,2469.993,2020-1-22T16:28:52Z
2020-01-22T14:31:22Z,42.805,6.029,13.2963,4.59961,2469.97,2020-1-22T16:31:55Z
2020-01-22T14:34:26Z,42.805,6.029,13.2964,4.59961,2469.993,2020-1-22T16:34:59Z
2020-01-22T14:37:29Z,42.805,6.029,13.2962,4.59961,2470.007,2020-1-22T16:38:02Z
2020-01-22T14:40:32Z,42.805,6.029,13.2964,4.59961,2469.984,2020-1-22T16:41:05Z
2020-01-22T14:43:35Z,42.805,6.029,13.2964,4.59962,2469.993,2020-1-22T16:44:08Z
2020-01-22T14:46:39Z,42.805,6.029,13.2962,4.59961,2470.03,2020-1-22T16:47:12Z
2020-01-22T14:49:42Z,42.805,6.029,13.2968,4.59961,2470.03,2020-1-22T16:50:15Z
2020-01-22T14:52:45Z,42.805,6.029,13.2959,4.59961,2469.993,2020-1-22T16:53:18Z
2020-01-22T14:55:48Z,42.805,6.029,13.2962,4.59961,2470.007,2020-1-22T16:56:22Z
2020-01-22T14:58:52Z,42.805,6.029,13.2961,4.59962,2470.03,2020-1-22T16:59:25Z
2020-01-22T15:01:55Z,42.805,6.029,13.2962,4.59961,2470.053,2020-1-22T17:02:28Z
2020-01-22T15:04:58Z,42.805,6.029,13.2966,4.59961,2470.007,2020-1-22T17:05:31Z
2020-01-22T15:08:01Z,42.805,6.029,13.2964,4.59961,2470.03,2020-1-22T17:08:34Z
2020-01-22T15:11:05Z,42.805,6.029,13.2965,4.59961,2470.007,2020-1-22T17:11:38Z
2020-01-22T15:14:08Z,42.805,6.029,13.2967,4.59961,2469.993,2020-1-22T17:14:41Z